Regional Weather Roundup
Issued by NWS Upton, NY

Current Version | Previous Version | Text Only | Print | Product List | Glossary On
Versions: 1 2 3 4 5 6 7 8 9 10 11 12 13 14 15 16 17 18 19 20 21 22 23 24 25 26 27 28 29 30 31 32 33 34 35 36 37 38 39 40 41 42 43 44 45 46 47 48 49
000
ASUS41 KOKX 030208
RWROKX

REGIONAL WEATHER ROUNDUP
NATIONAL WEATHER SERVICE NEW YORK NY
1000 PM EDT SAT MAY 02 2015

NOTE: "FAIR" INDICATES FEW OR NO CLOUDS BELOW 12,000 FEET WITH NO
SIGNIFICANT WEATHER AND/OR OBSTRUCTIONS TO VISIBILITY.

NYZ071-072-176-178-NJZ106-104-030300-
NEW YORK CITY METRO AREA


CITY           SKY/WX    TMP DP  RH WIND       PRES   REMARKS
CENTRAL PARK   PTCLDY    52  36  54 S7        30.06R
LAGUARDIA APRT MOCLDY    51  39  63 S9        30.03R
KENNEDY INTL   PTCLDY    49  40  71 S7        30.05R
NEWARK/LIBERTY MOCLDY    52  38  58 S6        30.03R
BRNX BOT. GARD   N/A     48  39  71 E5        30.03S
TETERBORO      PTCLDY    52  38  58 S5        30.02R
$$

NYZ177-179-078>081-030300-
LONG ISLAND NEW YORK

CITY           SKY/WX    TMP DP  RH WIND       PRES   REMARKS
FARMINGDALE    CLEAR     47  40  76 S6        30.04R
ISLIP          PTCLDY    47  39  74 S6        30.03R
SHIRLEY        CLEAR     46  39  76 S3        30.05R
WESTHAMPTON    CLEAR     36  31  82 CALM      30.05R
MONTAUK POINT    N/A     46  39  76 CALM      30.05R
$$

NYZ052-065-067-030300-
HUDSON VALLEY

CITY           SKY/WX    TMP DP  RH WIND       PRES   REMARKS
WHITE PLAINS   PTCLDY    48  38  68 S3        30.02R
NEWBURGH       NOT AVBL
MONTGOMERY     MOCLDY    58  43  57 S5        29.98R
POUGHKEEPSIE   MOCLDY    59  43  55 VRB7      29.98R
ALBANY         PTCLDY    66  33  29 W15       29.94R
$$

NJZ001-105-106-008-010-013-015-019>022-104-030300-
NEW JERSEY

CITY           SKY/WX    TMP DP  RH WIND       PRES   REMARKS
NEWARK/LIBERTY MOCLDY    52  38  58 S6        30.03R
TETERBORO      PTCLDY    52  38  58 S5        30.02R
CALDWELL       CLOUDY    51  39  63 CALM      30.03R
MORRISTOWN     CLEAR     50  39  66 CALM      30.03R
SOMERVILLE     CLEAR     54  43  66 SE3       30.00R
SUSSEX         CLOUDY    59  43  55 CALM      30.01R
ANDOVER          N/A     58  44  60 CALM      30.00R
TRENTON        CLEAR     54  42  64 S10       30.01R
MILLVILLE      CLEAR     50  43  77 SE5       30.03R
ATLANTIC CITY  CLEAR     50  40  68 S6        30.04R
WRIGHTSTOWN    CLEAR     49  39  70 SE6       30.01R
TOMS RIVER     CLEAR     46  37  71 CALM      30.04R
BELMAR         CLEAR     50  36  57 S7        30.03R
$$

PAZ047>061-062-071-030300-
EASTERN PENNSYLVANIA

CITY           SKY/WX    TMP DP  RH WIND       PRES   REMARKS
PHILADELPHIA   PTCLDY    60  46  59 S8        30.02R
ALLENTOWN      PTCLDY    59  40  49 VRB3      29.97R
SCRANTON       PTCLDY    61  33  35 CALM      29.99R
$$

CTZ002-004>006-009-010-012-RIZ004-006-007-MAZ004-011-015-030300-
SOUTHERN NEW ENGLAND
 IN CT

CITY           SKY/WX    TMP DP  RH WIND       PRES   REMARKS
BRADLEY INTL   CLEAR     53  39  59 S13       29.99R
HARTFORD       CLEAR     51  39  63 S10       30.02R
DANBURY        CLEAR     51  38  60 S5        30.03R
WTRBRY/OXFORD  NOT AVBL
BRIDGEPORT     CLEAR     50  41  71 SW9       30.04R
MERIDEN        FAIR      49  38  65 S9        30.03R
NEW HAVEN      CLEAR     47  40  76 S6        30.04R
CHESTER        FAIR      46  37  71 S3        30.03S
GROTON         CLEAR     44  39  82 S5        30.04R
WILLIMANTIC    CLEAR     50  37  61 S7        30.03R

 IN RI

CITY           SKY/WX    TMP DP  RH WIND       PRES   REMARKS
PROVIDENCE     PTCLDY    46  38  73 S6        30.03R
BLOCK ISLAND   CLEAR     43  37  81 W6        30.03R
WESTERLY       CLEAR     43  38  82 CALM      30.04R

 IN MA

CITY           SKY/WX    TMP DP  RH WIND       PRES   REMARKS
BOSTON         PTCLDY    49  41  74 S8        30.00S
WORCESTER      CLEAR     52  37  56 SW12      29.99R
WESTFIELD      CLEAR     54  39  57 S12       29.98R
PROVINCETOWN   CLEAR     43  39  87 S5        30.03R
NANTUCKET      PTCLDY    38  35  89 N3        30.02R
$$

ANZ330-335-338-340-345-350-353-355-030300-
COASTAL MARINE OBSERVATIONS


STATION/POSITION TIME  SKY/WX   TEMP    WIND        PRES    VSBY  WAVE
                                AIR SEA DIR/SP/G                  HT/PER
                 (UTC)          (F)     (DEG/KT/KT) (MB)    (MI)  (FT/S)
NY HARB ENTRANCE 0150            48 50  190/ 12/ 14 1016.8          5/ 8
4S FIRE IS       0103               47                N/A           5/ 7
20S FIRE ISLAND  0150            46 47  200/  6/  8 1017.4          5/ 7
GREAT SOUTH BAY  0100            48 57  180/  6/  8   N/A
23SW MTP         0150            44 45  250/  2/  4 1017.0          4/ 8
HUDSON CANYON    NOT AVBL
EXECUTION ROCKS  NOT AVBL
WESTERN LI SOUND NOT AVBL
CENTRAL LI SOUND NOT AVBL
EASTERN LI SOUND 0100            45     190/  4/  6   N/A
ROBBINS REEF     0100            50     150/ 14/ 16 1015.1
$$


>>>>>>>>>>>>>>>>>>>>>>>>>>>> KEY <<<<<<<<<<<<<<<<<<<<<<<<<<<
>                                                          <
>     SKY/WX - SKY CONDITION/PRESENT WEATHER               <
>     TMP    - TEMPERATURE IN FAHRENHEIT                   <
>     DP     - DEWPOINT IN FAHRENHEIT                      <
>     RH     - RELATIVE HUMIDITY IN PERCENT                <
>     WIND   - DIRECTION AND SPEED IN MPH                  <
>     PRES   - MEAN SEA LEVEL PRESSURE IN INCHES OF HG     <
>     WCI    - WIND CHILL INDEX                            <
>     VSB    - VISIBILITY IN MILES                         <
>     HX     - HEAT INDEX                                  <
>     TC     - TEMPERATURE IN CELSIUS                      <
>     VRB    - VARIABLE WIND DIRECTION                     <
>                                                          <
>>>>>>>>>>>>>>>>>>>>>>>>>>>> KEY <<<<<<<<<<<<<<<<<<<<<<<<<<<





USA.gov is the U.S. government's official web portal to all federal, state and local government web resources and services.